CFG4810 LDSP-EDDF

Flight info

Callsign CFG4810
Flight time 1h 22m
Altitude 36000
Route ZDA DCT NIPEL DCT SIMBA DCT AKINI T161 DEBHI DEBHI1B
Aircraft A321/M-SDE3FGIJ1LORVWXYZ/LB1

Departure

Time 2026-05-06 10:58
Airport Split Saint Jerome Airport (LDSP)

Arrival

Time 2026-05-06 12:21
Airport Frankfurt Main Airport (EDDF)
Time Latitude Longitude Altitude Speed Heading
2026-05-06 10:11 43.53761 16.29936 70 ft 0 kts 114°
2026-05-06 10:53 43.53761 16.29938 70 ft 1 kts 111°
2026-05-06 10:53 43.53769 16.29943 69 ft 2 kts 17°
2026-05-06 10:54 43.53788 16.29917 74 ft 5 kts 303°
2026-05-06 10:54 43.53790 16.29857 84 ft 8 kts 245°
2026-05-06 10:54 43.53761 16.29800 85 ft 5 kts 234°
2026-05-06 10:54 43.53731 16.29745 86 ft 12 kts 231°
2026-05-06 10:55 43.53690 16.29648 88 ft 11 kts 262°
2026-05-06 10:55 43.53692 16.29548 88 ft 10 kts 273°
2026-05-06 10:55 43.53682 16.29429 85 ft 16 kts 248°
2026-05-06 10:55 43.53621 16.29308 86 ft 15 kts 233°
2026-05-06 10:56 43.53544 16.29170 83 ft 22 kts 232°
2026-05-06 10:56 43.53451 16.29008 83 ft 22 kts 232°
2026-05-06 10:56 43.53357 16.28840 87 ft 21 kts 233°
2026-05-06 10:56 43.53274 16.28687 92 ft 19 kts 233°
2026-05-06 10:57 43.53207 16.28623 88 ft 8 kts 200°
2026-05-06 10:57 43.53205 16.28592 92 ft 2 kts 337°
2026-05-06 10:57 43.53232 16.28612 90 ft 11 kts 46°
2026-05-06 10:57 43.53393 16.28897 86 ft 73 kts 52°
2026-05-06 10:58 43.53834 16.29687 85 ft 132 kts 52°
2026-05-06 10:58 43.54472 16.30845 235 ft 161 kts 54°
2026-05-06 10:58 43.55141 16.32063 873 ft 159 kts 54°
2026-05-06 10:58 43.55636 16.33400 1437 ft 161 kts 80°
2026-05-06 10:59 43.55558 16.34997 1729 ft 179 kts 112°
2026-05-06 10:59 43.54767 16.36367 2093 ft 189 kts 148°
2026-05-06 10:59 43.53517 16.36900 2555 ft 191 kts 175°
2026-05-06 10:59 43.52212 16.37318 3081 ft 196 kts 156°
2026-05-06 11:00 43.50989 16.38162 3573 ft 198 kts 154°
2026-05-06 11:00 43.49760 16.39039 4094 ft 199 kts 154°
2026-05-06 11:00 43.48525 16.39929 4599 ft 201 kts 153°
2026-05-06 11:00 43.47273 16.40794 5092 ft 202 kts 161°
2026-05-06 11:01 43.45892 16.40875 5540 ft 202 kts 198°
2026-05-06 11:01 43.44672 16.39815 5706 ft 218 kts 229°
2026-05-06 11:01 43.43991 16.37888 5833 ft 237 kts 262°
2026-05-06 11:01 43.44291 16.35583 6021 ft 261 kts 300°
2026-05-06 11:02 43.45437 16.33568 6586 ft 272 kts 311°
2026-05-06 11:02 43.46724 16.31637 7324 ft 276 kts 313°
2026-05-06 11:02 43.48054 16.29706 8087 ft 279 kts 313°
2026-05-06 11:02 43.49400 16.27759 8826 ft 283 kts 313°
2026-05-06 11:03 43.50755 16.25778 9580 ft 286 kts 312°
2026-05-06 11:03 43.52121 16.23764 10285 ft 290 kts 312°
2026-05-06 11:03 43.53543 16.21646 10526 ft 313 kts 312°
2026-05-06 11:03 43.55073 16.19353 10653 ft 336 kts 312°
2026-05-06 11:04 43.56687 16.16926 11006 ft 350 kts 312°
2026-05-06 11:04 43.58325 16.14465 11606 ft 355 kts 312°
2026-05-06 11:04 43.60000 16.11944 12271 ft 359 kts 312°
2026-05-06 11:04 43.61692 16.09393 12926 ft 362 kts 312°
2026-05-06 11:05 43.63399 16.06818 13578 ft 366 kts 312°
2026-05-06 11:05 43.65126 16.04209 14220 ft 369 kts 312°
2026-05-06 11:05 43.66868 16.01579 14840 ft 373 kts 312°
2026-05-06 11:05 43.68624 15.98924 15441 ft 376 kts 312°
2026-05-06 11:06 43.70395 15.96251 16025 ft 379 kts 312°
2026-05-06 11:06 43.72183 15.93548 16587 ft 382 kts 312°
2026-05-06 11:06 43.73985 15.90821 17158 ft 386 kts 312°
2026-05-06 11:06 43.75802 15.88073 17692 ft 389 kts 312°
2026-05-06 11:07 43.77633 15.85302 18218 ft 392 kts 312°
2026-05-06 11:07 43.79476 15.82502 18727 ft 395 kts 311°
2026-05-06 11:07 43.81330 15.79677 19225 ft 398 kts 311°
2026-05-06 11:07 43.83197 15.76830 19704 ft 401 kts 311°
2026-05-06 11:08 43.84440 15.74935 20009 ft 403 kts 311°
2026-05-06 11:08 43.86327 15.72053 20478 ft 405 kts 311°
2026-05-06 11:08 43.88228 15.69149 20941 ft 408 kts 311°
2026-05-06 11:08 43.90146 15.66223 21381 ft 411 kts 311°
2026-05-06 11:09 43.92076 15.63277 21818 ft 414 kts 311°
2026-05-06 11:09 43.94017 15.60307 22249 ft 417 kts 311°
2026-05-06 11:09 43.95964 15.57321 22674 ft 419 kts 311°
2026-05-06 11:09 43.97926 15.54310 23080 ft 422 kts 311°
2026-05-06 11:10 43.99900 15.51279 23486 ft 424 kts 311°
2026-05-06 11:10 44.01886 15.48222 23883 ft 427 kts 311°
2026-05-06 11:10 44.03879 15.45153 24265 ft 430 kts 311°
2026-05-06 11:10 44.05890 15.42057 24640 ft 432 kts 311°
2026-05-06 11:11 44.07980 15.39048 24998 ft 435 kts 318°
2026-05-06 11:11 44.10400 15.36498 25343 ft 438 kts 327°
2026-05-06 11:11 44.13104 15.34537 25700 ft 441 kts 337°
2026-05-06 11:11 44.15973 15.32996 26037 ft 443 kts 338°
2026-05-06 11:12 44.18862 15.31455 26384 ft 445 kts 338°
2026-05-06 11:12 44.21762 15.29904 26717 ft 448 kts 338°
2026-05-06 11:12 44.24680 15.28341 27040 ft 450 kts 338°
2026-05-06 11:12 44.27607 15.26780 27351 ft 452 kts 338°
2026-05-06 11:13 44.30551 15.25211 27665 ft 454 kts 338°
2026-05-06 11:13 44.33507 15.23630 27948 ft 456 kts 338°
2026-05-06 11:13 44.36478 15.22036 28236 ft 458 kts 338°
2026-05-06 11:13 44.39460 15.20432 28504 ft 460 kts 338°
2026-05-06 11:14 44.42410 15.18844 28783 ft 462 kts 338°
2026-05-06 11:14 44.45418 15.17223 29068 ft 464 kts 338°
2026-05-06 11:14 44.48437 15.15592 29344 ft 466 kts 338°
2026-05-06 11:14 44.51466 15.13959 29614 ft 468 kts 338°
2026-05-06 11:15 44.54497 15.12323 29979 ft 467 kts 338°
2026-05-06 11:15 44.57525 15.10686 30341 ft 466 kts 338°
2026-05-06 11:15 44.60543 15.09053 30689 ft 465 kts 338°
2026-05-06 11:15 44.63559 15.07418 31037 ft 464 kts 338°
2026-05-06 11:16 44.66567 15.05786 31380 ft 464 kts 338°
2026-05-06 11:16 44.69573 15.04154 31718 ft 463 kts 338°
2026-05-06 11:16 44.72579 15.02520 32059 ft 462 kts 338°
2026-05-06 11:16 44.75571 15.00892 32396 ft 461 kts 338°
2026-05-06 11:17 44.78565 14.99260 32711 ft 461 kts 338°
2026-05-06 11:17 44.81546 14.97631 33050 ft 460 kts 338°
2026-05-06 11:17 44.84532 14.95996 33372 ft 459 kts 338°
2026-05-06 11:17 44.87504 14.94368 33694 ft 459 kts 338°
2026-05-06 11:18 44.90482 14.92738 34008 ft 458 kts 338°
2026-05-06 11:18 44.93446 14.91115 34320 ft 457 kts 338°
2026-05-06 11:18 44.96417 14.89488 34621 ft 457 kts 338°
2026-05-06 11:18 44.99373 14.87868 34915 ft 456 kts 338°
2026-05-06 11:19 45.02330 14.86244 35204 ft 456 kts 338°
2026-05-06 11:19 45.05282 14.84619 35481 ft 455 kts 338°
2026-05-06 11:19 45.08229 14.82994 35749 ft 454 kts 338°
2026-05-06 11:19 45.11171 14.81366 36010 ft 454 kts 338°
2026-05-06 11:20 45.14114 14.79737 36093 ft 453 kts 338°
2026-05-06 11:20 45.20037 14.76458 36107 ft 462 kts 338°
2026-05-06 11:21 45.26034 14.73135 36107 ft 468 kts 338°
2026-05-06 11:21 45.32100 14.69766 36111 ft 469 kts 338°
2026-05-06 11:22 45.38177 14.66387 36112 ft 469 kts 338°
2026-05-06 11:22 45.44248 14.63005 36110 ft 469 kts 338°
2026-05-06 11:23 45.50319 14.59606 36112 ft 469 kts 338°
2026-05-06 11:23 45.56360 14.56210 36115 ft 469 kts 338°
2026-05-06 11:24 45.62440 14.52786 36117 ft 469 kts 338°
2026-05-06 11:24 45.68301 14.49484 36118 ft 469 kts 338°
2026-05-06 11:25 45.74377 14.46055 36124 ft 469 kts 338°
2026-05-06 11:25 45.80448 14.42616 36123 ft 469 kts 338°
2026-05-06 11:26 45.86520 14.39167 36121 ft 469 kts 338°
2026-05-06 11:26 45.92598 14.35709 36120 ft 470 kts 338°
2026-05-06 11:27 45.98669 14.32249 36124 ft 470 kts 338°
2026-05-06 11:27 46.04749 14.28784 36127 ft 470 kts 338°
2026-05-06 11:28 46.10822 14.25305 36122 ft 470 kts 338°
2026-05-06 11:28 46.16846 14.21836 36126 ft 469 kts 338°
2026-05-06 11:29 46.22946 14.18325 36119 ft 469 kts 338°
2026-05-06 11:29 46.28967 14.14855 36123 ft 469 kts 338°
2026-05-06 11:30 46.35035 14.11346 36122 ft 470 kts 338°
2026-05-06 11:30 46.41102 14.07816 36126 ft 470 kts 338°
2026-05-06 11:31 46.47166 14.04296 36126 ft 470 kts 338°
2026-05-06 11:31 46.53247 14.00795 36123 ft 470 kts 338°
2026-05-06 11:32 46.59349 13.97358 36126 ft 470 kts 338°
2026-05-06 11:32 46.65456 13.93925 36129 ft 471 kts 338°
2026-05-06 11:33 46.71558 13.90463 36136 ft 470 kts 338°
2026-05-06 11:33 46.77649 13.86990 36129 ft 470 kts 338°
2026-05-06 11:34 46.83747 13.83513 36130 ft 470 kts 338°
2026-05-06 11:34 46.89812 13.80036 36123 ft 470 kts 338°
2026-05-06 11:35 46.95897 13.76552 36129 ft 470 kts 338°
2026-05-06 11:35 47.01982 13.73052 36127 ft 470 kts 338°
2026-05-06 11:36 47.08078 13.69525 36129 ft 470 kts 338°
2026-05-06 11:36 47.14173 13.66001 36129 ft 471 kts 338°
2026-05-06 11:37 47.20264 13.62474 36126 ft 471 kts 338°
2026-05-06 11:37 47.26323 13.58968 36129 ft 470 kts 338°
2026-05-06 11:38 47.32442 13.55413 36132 ft 470 kts 338°
2026-05-06 11:38 47.38525 13.51850 36128 ft 470 kts 338°
2026-05-06 11:39 47.44597 13.48289 36127 ft 470 kts 338°
2026-05-06 11:39 47.50630 13.44745 36126 ft 470 kts 338°
2026-05-06 11:40 47.56747 13.41152 36123 ft 470 kts 338°
2026-05-06 11:40 47.62822 13.37573 36122 ft 470 kts 338°
2026-05-06 11:41 47.68850 13.34016 36120 ft 470 kts 338°
2026-05-06 11:41 47.74920 13.30420 36128 ft 470 kts 338°
2026-05-06 11:42 47.80983 13.26814 36120 ft 469 kts 338°
2026-05-06 11:42 47.87046 13.23183 36123 ft 469 kts 338°
2026-05-06 11:43 47.93108 13.19565 36123 ft 470 kts 338°
2026-05-06 11:43 47.99177 13.15947 36123 ft 470 kts 338°
2026-05-06 11:44 48.08270 13.10489 36125 ft 470 kts 338°
2026-05-06 11:44 48.14334 13.06840 36128 ft 470 kts 338°
2026-05-06 11:45 48.20366 13.03076 36121 ft 469 kts 332°
2026-05-06 11:45 48.25561 12.97250 36124 ft 467 kts 312°
2026-05-06 11:46 48.29870 12.89956 36127 ft 468 kts 311°
2026-05-06 11:46 48.34198 12.82633 36129 ft 468 kts 311°
2026-05-06 11:47 48.38497 12.75333 36129 ft 468 kts 311°
2026-05-06 11:47 48.42816 12.67977 36130 ft 468 kts 311°
2026-05-06 11:48 48.47115 12.60622 36132 ft 468 kts 311°
2026-05-06 11:48 48.51411 12.53249 36128 ft 468 kts 311°
2026-05-06 11:49 48.55696 12.45863 36125 ft 468 kts 310°
2026-05-06 11:49 48.59954 12.38510 36129 ft 468 kts 310°
2026-05-06 11:50 48.64262 12.31057 36124 ft 468 kts 310°
2026-05-06 11:50 48.68534 12.23640 36128 ft 467 kts 310°
2026-05-06 11:51 48.72720 12.16114 36120 ft 467 kts 304°
2026-05-06 11:51 48.75438 12.07250 36124 ft 465 kts 284°
2026-05-06 11:52 48.76583 11.97615 36118 ft 465 kts 279°
2026-05-06 11:52 48.77624 11.87923 36114 ft 466 kts 279°
2026-05-06 11:53 48.78656 11.78229 36116 ft 466 kts 279°
2026-05-06 11:53 48.79675 11.68618 36112 ft 466 kts 279°
2026-05-06 11:54 48.80675 11.59120 36108 ft 451 kts 279°
2026-05-06 11:54 48.81646 11.49792 36108 ft 447 kts 278°
2026-05-06 11:55 48.82599 11.40464 36110 ft 447 kts 278°
2026-05-06 11:55 48.83544 11.31153 36108 ft 447 kts 280°
2026-05-06 11:56 48.85580 11.22285 36112 ft 447 kts 300°
2026-05-06 11:56 48.89484 11.14989 36108 ft 447 kts 317°
2026-05-06 11:57 48.93335 11.09639 36105 ft 448 kts 317°
2026-05-06 11:57 48.97887 11.03258 36108 ft 448 kts 317°
2026-05-06 11:58 49.02473 10.96800 36099 ft 449 kts 317°
2026-05-06 11:58 49.07077 10.90333 36097 ft 451 kts 317°
2026-05-06 11:59 49.11686 10.83847 36099 ft 451 kts 317°
2026-05-06 11:59 49.16274 10.77359 34948 ft 447 kts 316°
2026-05-06 12:00 49.18560 10.74111 33564 ft 449 kts 316°
2026-05-06 12:00 49.20824 10.70847 32132 ft 449 kts 315°
2026-05-06 12:00 49.23041 10.67474 30771 ft 448 kts 314°
2026-05-06 12:00 49.25187 10.64068 29545 ft 441 kts 313°
2026-05-06 12:01 49.27276 10.60685 28390 ft 434 kts 313°
2026-05-06 12:01 49.29347 10.57324 26676 ft 437 kts 313°
2026-05-06 12:01 49.31466 10.53907 25403 ft 450 kts 313°
2026-05-06 12:01 49.33656 10.50410 24737 ft 456 kts 313°
2026-05-06 12:02 49.35861 10.46833 24408 ft 462 kts 310°
2026-05-06 12:02 49.37747 10.42955 24201 ft 445 kts 305°
2026-05-06 12:02 49.39498 10.39153 24087 ft 428 kts 304°
2026-05-06 12:02 49.41188 10.35468 23763 ft 417 kts 304°
2026-05-06 12:03 49.42836 10.31855 23243 ft 411 kts 304°
2026-05-06 12:03 49.44468 10.28269 22706 ft 407 kts 304°
2026-05-06 12:03 49.46079 10.24723 22141 ft 404 kts 304°
2026-05-06 12:03 49.47679 10.21198 21577 ft 400 kts 304°
2026-05-06 12:04 49.49263 10.17696 21020 ft 397 kts 304°
2026-05-06 12:04 49.50831 10.14228 20458 ft 393 kts 304°
2026-05-06 12:04 49.52386 10.10787 19902 ft 390 kts 304°
2026-05-06 12:04 49.53928 10.07379 19351 ft 387 kts 304°
2026-05-06 12:05 49.55458 10.03991 18810 ft 384 kts 304°
2026-05-06 12:05 49.56968 10.00641 18297 ft 381 kts 304°
2026-05-06 12:05 49.58475 9.97295 18057 ft 379 kts 304°
2026-05-06 12:05 49.59968 9.93980 17540 ft 376 kts 304°
2026-05-06 12:06 49.61450 9.90684 17020 ft 373 kts 304°
2026-05-06 12:06 49.62925 9.87394 16505 ft 370 kts 304°
2026-05-06 12:06 49.64382 9.84135 16018 ft 368 kts 304°
2026-05-06 12:06 49.65828 9.80896 15525 ft 365 kts 304°
2026-05-06 12:07 49.67259 9.77683 15032 ft 362 kts 304°
2026-05-06 12:07 49.68684 9.74487 14553 ft 360 kts 304°
2026-05-06 12:07 49.70097 9.71315 14173 ft 358 kts 304°
2026-05-06 12:07 49.71505 9.68147 14098 ft 358 kts 304°
2026-05-06 12:08 49.72912 9.64982 14109 ft 359 kts 304°
2026-05-06 12:08 49.74327 9.61803 14109 ft 359 kts 304°
2026-05-06 12:08 49.75734 9.58638 13803 ft 355 kts 304°
2026-05-06 12:08 49.77127 9.55498 13312 ft 353 kts 304°
2026-05-06 12:09 49.78507 9.52381 12819 ft 350 kts 304°
2026-05-06 12:09 49.79879 9.49273 12326 ft 348 kts 304°
2026-05-06 12:09 49.81238 9.46189 11845 ft 345 kts 304°
2026-05-06 12:09 49.82653 9.43207 11338 ft 343 kts 313°
2026-05-06 12:10 49.84510 9.40921 10874 ft 341 kts 327°
2026-05-06 12:10 49.86488 9.38961 10379 ft 339 kts 327°
2026-05-06 12:10 49.88468 9.37008 9996 ft 334 kts 327°
2026-05-06 12:10 49.90357 9.35148 9859 ft 313 kts 327°
2026-05-06 12:11 49.92121 9.33410 9560 ft 291 kts 327°
2026-05-06 12:11 49.93796 9.31756 8920 ft 283 kts 327°
2026-05-06 12:11 49.95463 9.30103 8510 ft 283 kts 327°
2026-05-06 12:11 49.97126 9.28452 8151 ft 280 kts 326°
2026-05-06 12:12 49.98744 9.26848 7776 ft 279 kts 327°
2026-05-06 12:12 50.00376 9.25233 7410 ft 277 kts 327°
2026-05-06 12:12 50.01886 9.23354 7036 ft 274 kts 313°
2026-05-06 12:12 50.03178 9.21226 6673 ft 273 kts 312°
2026-05-06 12:13 50.04491 9.19054 6299 ft 272 kts 312°
2026-05-06 12:13 50.05766 9.16942 5928 ft 270 kts 312°
2026-05-06 12:13 50.07051 9.14817 5554 ft 269 kts 312°
2026-05-06 12:13 50.08092 9.12401 5157 ft 265 kts 291°
2026-05-06 12:14 50.08712 9.09739 4772 ft 264 kts 289°
2026-05-06 12:14 50.09325 9.07041 4402 ft 263 kts 289°
2026-05-06 12:14 50.09927 9.04378 4334 ft 262 kts 289°
2026-05-06 12:14 50.10521 9.01761 4318 ft 250 kts 289°
2026-05-06 12:15 50.11080 8.99291 4330 ft 235 kts 289°
2026-05-06 12:15 50.11613 8.96933 4330 ft 233 kts 289°
2026-05-06 12:15 50.12056 8.94533 4332 ft 231 kts 275°
2026-05-06 12:15 50.11901 8.92076 4332 ft 226 kts 251°
2026-05-06 12:16 50.11388 8.89884 4338 ft 206 kts 250°
2026-05-06 12:16 50.10902 8.87819 4204 ft 197 kts 250°
2026-05-06 12:16 50.10449 8.85892 3975 ft 190 kts 250°
2026-05-06 12:16 50.09993 8.83956 3734 ft 187 kts 250°
2026-05-06 12:17 50.09552 8.82084 3486 ft 184 kts 250°
2026-05-06 12:17 50.09123 8.80262 3255 ft 176 kts 250°
2026-05-06 12:17 50.08703 8.78482 3025 ft 175 kts 250°
2026-05-06 12:17 50.08326 8.76707 2787 ft 167 kts 259°
2026-05-06 12:18 50.08202 8.75003 2580 ft 152 kts 264°
2026-05-06 12:18 50.08060 8.73404 2312 ft 146 kts 253°
2026-05-06 12:18 50.07707 8.71948 2166 ft 143 kts 245°
2026-05-06 12:18 50.07330 8.70525 2043 ft 143 kts 249°
2026-05-06 12:19 50.06997 8.69073 1775 ft 142 kts 248°
2026-05-06 12:19 50.06643 8.67642 1563 ft 141 kts 247°
2026-05-06 12:19 50.06300 8.66211 1385 ft 141 kts 248°
2026-05-06 12:19 50.05955 8.64771 1202 ft 142 kts 247°
2026-05-06 12:20 50.05603 8.63334 1022 ft 143 kts 248°
2026-05-06 12:20 50.05263 8.61883 795 ft 143 kts 249°
2026-05-06 12:20 50.04925 8.60437 597 ft 143 kts 248°
2026-05-06 12:20 50.04582 8.58992 425 ft 142 kts 248°
2026-05-06 12:21 50.04240 8.57594 369 ft 129 kts 250°
2026-05-06 12:21 50.04055 8.56808 358 ft 11 kts 254°
2026-05-06 12:21 50.04072 8.56720 361 ft 10 kts 328°
2026-05-06 12:21 50.04137 8.56741 359 ft 11 kts 26°
2026-05-06 12:22 50.04205 8.56783 364 ft 11 kts 15°
2026-05-06 12:22 50.04263 8.56847 360 ft 13 kts 64°
2026-05-06 12:22 50.04307 8.57033 364 ft 20 kts 70°
2026-05-06 12:22 50.04354 8.57229 361 ft 19 kts 70°
2026-05-06 12:23 50.04398 8.57415 361 ft 17 kts 69°
2026-05-06 12:23 50.04439 8.57581 365 ft 15 kts 69°
2026-05-06 12:23 50.04473 8.57724 369 ft 14 kts 69°
2026-05-06 12:23 50.04508 8.57864 370 ft 14 kts 69°
2026-05-06 12:24 50.04541 8.57997 365 ft 13 kts 63°
2026-05-06 12:24 50.04625 8.58009 360 ft 15 kts 336°
2026-05-06 12:24 50.04723 8.57949 360 ft 15 kts 343°
2026-05-06 12:24 50.04798 8.58027 363 ft 14 kts 64°
2026-05-06 12:25 50.04828 8.58156 361 ft 10 kts 70°
2026-05-06 12:25 50.04851 8.58255 362 ft 10 kts 69°
2026-05-06 12:25 50.04875 8.58351 366 ft 10 kts 69°
2026-05-06 12:25 50.04908 8.58485 363 ft 17 kts 69°
2026-05-06 12:26 50.04948 8.58654 365 ft 17 kts 70°
2026-05-06 12:26 50.04987 8.58823 364 ft 16 kts 70°
2026-05-06 12:26 50.04976 8.58916 363 ft 7 kts 155°
2026-05-06 12:26 50.04943 8.58934 362 ft 3 kts 161°
2026-05-06 12:27 50.04937 8.58938 362 ft 1 kts 160°
2026-05-06 12:27 50.04931 8.58941 366 ft 0 kts 160°
2026-05-06 12:27 50.04929 8.58942 365 ft 0 kts 160°